This is the latest recevied weather packets stored in our database for station/object W8BS. If no packets are shown the sender has not sent any weather packets the latest 10 day(s).
| Time | Temp. | Humidity | Pressure | Rain* | Wind** | Luminosity | Snow |
|---|---|---|---|---|---|---|---|
| 1777682521 | 6.11° C | 96% | 1013 hPa | 0 mm | - | 0 W/m² | - |
| 1777682219 | 6.11° C | 96% | 1012.8 hPa | 0 mm | - | 0 W/m² | - |
| 1777681916 | 6.11° C | 96% | 1012.9 hPa | 0 mm | - | 0 W/m² | - |
| 1777681611 | 6.11° C | 95% | 1012.6 hPa | 1.27 mm | - | 0 W/m² | - |
| 1777681310 | 6.67° C | 94% | 1012.8 hPa | 1.27 mm | - | 0 W/m² | - |
| 1777681007 | 6.67° C | 94% | 1012.5 hPa | 0 mm | - | 0 W/m² | - |
| 1777680704 | 6.67° C | 91% | 1012.5 hPa | 1.78 mm | - | 0 W/m² | - |
| 1777680402 | 6.67° C | 90% | 1012.2 hPa | 1.78 mm | - | 0 W/m² | - |
| 1777680099 | 6.67° C | 89% | 1012.4 hPa | 0 mm | - | 0 W/m² | - |
| 1777679795 | 7.22° C | 88% | 1012.2 hPa | 0 mm | - | 0 W/m² | - |
| 1777679491 | 7.78° C | 86% | 1012.3 hPa | 0 mm | - | 1 W/m² | - |
| 1777679187 | 8.33° C | 84% | 1012.1 hPa | 0 mm | - | 0 W/m² | - |
| 1777678884 | 8.33° C | 83% | 1011.7 hPa | 0 mm | - | 2 W/m² | - |
| 1777678582 | 8.33° C | 84% | 1012.1 hPa | 0 mm | - | 1 W/m² | - |
| 1777678279 | 8.33° C | 84% | 1011.6 hPa | 0 mm | - | 4 W/m² | - |
| 1777677975 | 8.33° C | 83% | 1011.7 hPa | 0 mm | - | 9 W/m² | - |
| 1777677673 | 8.89° C | 84% | 1011.8 hPa | 0 mm | - | 6 W/m² | - |
| 1777677370 | 8.89° C | 84% | 1011.6 hPa | 0 mm | - | 7 W/m² | - |
| 1777677069 | 8.89° C | 84% | 1011.8 hPa | 0 mm | - | 5 W/m² | - |
| 1777676767 | 8.89° C | 83% | 1011.7 hPa | 0 mm | - | 6 W/m² | - |
| 1777676465 | 8.89° C | 82% | 1011.5 hPa | 0 mm | - | 19 W/m² | - |
| 1777676162 | 9.44° C | 82% | 1011.6 hPa | 0 mm | - | 25 W/m² | - |
| 1777675858 | 9.44° C | 82% | 1011.5 hPa | 0 mm | - | 41 W/m² | - |
| 1777675555 | 9.44° C | 81% | 1011.5 hPa | 0 mm | - | 57 W/m² | - |
| 1777675252 | 10° C | 79% | 1011.1 hPa | 0 mm | - | 72 W/m² | - |
* Rain latest hour (hover to see other rain measurements)
** Current wind speed in m/s (hover to see current wind gust speed)